Location: Beuerbach
(48.1459°N, 10.9174°E)
Time: 23:06:27
(UTC+00:00)

USA 234 - Pass Details

Date: 23 May 2024
Orbit: 1100 x 1107 km, 123.0° (Epoch: 12 June)

Event Time Altitude Azimuth Distance (km) Brightness Sun altitude
Exits shadow 00:56:33 18° 170° (S) 2,386 4.6 -17.4°
Maximum altitude 01:00:50 39° 228° (SW) 1,598 3.7 -17.1°
Drops below altitude 10° 01:06:53 10° 296° (WNW) 2,964 5.5 -16.6°
Sets 01:09:35 0° 304° (NW) 3,924 6.2 -16.4°
